Year,Month,Day,Hour,Minute,Value (Times are PST for insolation in W/m^2)
2022,12,30,00,00,0.00
2022,12,30,00,01,0.00
2022,12,30,00,02,0.00
2022,12,30,00,03,0.00
2022,12,30,00,04,0.00
2022,12,30,00,05,0.00
2022,12,30,00,06,0.00
2022,12,30,00,07,0.00
2022,12,30,00,08,0.00
2022,12,30,00,09,0.00
2022,12,30,00,10,0.00
2022,12,30,00,11,0.00
2022,12,30,00,12,0.00
2022,12,30,00,13,0.00
2022,12,30,00,14,0.00
2022,12,30,00,15,0.00
2022,12,30,00,16,0.00
2022,12,30,00,17,0.00
2022,12,30,00,18,0.00
2022,12,30,00,19,0.00
2022,12,30,00,20,0.00
2022,12,30,00,21,0.00
2022,12,30,00,22,0.00
2022,12,30,00,23,0.00
2022,12,30,00,24,0.00
2022,12,30,00,25,0.00
2022,12,30,00,26,0.00
2022,12,30,00,27,0.00
2022,12,30,00,28,0.00
2022,12,30,00,29,0.00
2022,12,30,00,30,0.00
2022,12,30,00,31,0.00
2022,12,30,00,32,0.00
2022,12,30,00,33,0.00
2022,12,30,00,34,0.00
2022,12,30,00,35,0.00
2022,12,30,00,36,0.00
2022,12,30,00,37,0.00
2022,12,30,00,38,0.00
2022,12,30,00,39,0.00
2022,12,30,00,40,0.00
2022,12,30,00,41,0.00
2022,12,30,00,42,0.00
2022,12,30,00,43,0.00
2022,12,30,00,44,0.00
2022,12,30,00,45,0.00
2022,12,30,00,46,0.00
2022,12,30,00,47,0.00
2022,12,30,00,48,0.00
2022,12,30,00,49,0.00
2022,12,30,00,50,0.00
2022,12,30,00,51,0.00
2022,12,30,00,52,0.00
2022,12,30,00,53,0.00
2022,12,30,00,54,0.00
2022,12,30,00,55,0.00
2022,12,30,00,56,0.00
2022,12,30,00,57,0.00
2022,12,30,00,58,0.00
2022,12,30,00,59,0.00
2022,12,30,01,00,0.00
2022,12,30,01,01,0.00
2022,12,30,01,02,0.00
2022,12,30,01,03,0.00
2022,12,30,01,04,0.00
2022,12,30,01,05,0.00
2022,12,30,01,06,0.00
2022,12,30,01,07,0.00
2022,12,30,01,08,0.00
2022,12,30,01,09,0.00
2022,12,30,01,10,0.00
2022,12,30,01,11,0.00
2022,12,30,01,12,0.00
2022,12,30,01,13,0.00
2022,12,30,01,14,0.00
2022,12,30,01,15,0.00
2022,12,30,01,16,0.00
2022,12,30,01,17,0.00
2022,12,30,01,18,0.00
2022,12,30,01,19,0.00
2022,12,30,01,20,0.00
2022,12,30,01,21,0.00
2022,12,30,01,22,0.00
2022,12,30,01,23,0.00
2022,12,30,01,24,0.00
2022,12,30,01,25,0.00
2022,12,30,01,26,0.00
2022,12,30,01,27,0.00
2022,12,30,01,28,0.00
2022,12,30,01,29,0.00
2022,12,30,01,30,0.00
2022,12,30,01,31,0.00
2022,12,30,01,32,0.00
2022,12,30,01,33,0.00
2022,12,30,01,34,0.00
2022,12,30,01,35,0.00
2022,12,30,01,36,0.00
2022,12,30,01,37,0.00
2022,12,30,01,38,0.00
2022,12,30,01,39,0.00
2022,12,30,01,40,0.00
2022,12,30,01,41,0.00
2022,12,30,01,42,0.00
2022,12,30,01,43,0.00
2022,12,30,01,44,0.00
2022,12,30,01,45,0.00
2022,12,30,01,46,0.00
2022,12,30,01,47,0.00
2022,12,30,01,48,0.00
2022,12,30,01,49,0.00
2022,12,30,01,50,0.00
2022,12,30,01,51,0.00
2022,12,30,01,52,0.00
2022,12,30,01,53,0.00
2022,12,30,01,54,0.00
2022,12,30,01,55,0.00
2022,12,30,01,56,0.00
2022,12,30,01,57,0.00
2022,12,30,01,58,0.00
2022,12,30,01,59,0.00
2022,12,30,02,00,0.00
2022,12,30,02,01,0.00
2022,12,30,02,02,0.00
2022,12,30,02,03,0.00
2022,12,30,02,04,0.00
2022,12,30,02,05,0.00
2022,12,30,02,06,0.00
2022,12,30,02,07,0.00
2022,12,30,02,08,0.00
2022,12,30,02,09,0.00
2022,12,30,02,10,0.00
2022,12,30,02,11,0.00
2022,12,30,02,12,0.00
2022,12,30,02,13,0.00
2022,12,30,02,14,0.00
2022,12,30,02,15,0.00
2022,12,30,02,16,0.00
2022,12,30,02,17,0.00
2022,12,30,02,18,0.00
2022,12,30,02,19,0.00
2022,12,30,02,20,0.00
2022,12,30,02,21,0.00
2022,12,30,02,22,0.00
2022,12,30,02,23,0.00
2022,12,30,02,24,0.00
2022,12,30,02,25,0.00
2022,12,30,02,26,0.00
2022,12,30,02,27,0.00
2022,12,30,02,28,0.00
2022,12,30,02,29,0.00
2022,12,30,02,30,0.00
2022,12,30,02,31,0.00
2022,12,30,02,32,0.00
2022,12,30,02,33,0.00
2022,12,30,02,34,0.00
2022,12,30,02,35,0.00
2022,12,30,02,36,0.00
2022,12,30,02,37,0.00
2022,12,30,02,38,0.00
2022,12,30,02,39,0.00
2022,12,30,02,40,0.00
2022,12,30,02,41,0.00
2022,12,30,02,42,0.00
2022,12,30,02,43,0.00
2022,12,30,02,44,0.00
2022,12,30,02,45,0.00
2022,12,30,02,46,0.00
2022,12,30,02,47,0.00
2022,12,30,02,48,0.00
2022,12,30,02,49,0.00
2022,12,30,02,50,0.00
2022,12,30,02,51,0.00
2022,12,30,02,52,0.00
2022,12,30,02,53,0.00
2022,12,30,02,54,0.00
2022,12,30,02,55,0.00
2022,12,30,02,56,0.00
2022,12,30,02,57,0.00
2022,12,30,02,58,0.00
2022,12,30,02,59,0.00
2022,12,30,03,00,0.00
2022,12,30,03,01,0.00
2022,12,30,03,02,0.00
2022,12,30,03,03,0.00
2022,12,30,03,04,0.00
2022,12,30,03,05,0.00
2022,12,30,03,06,0.00
2022,12,30,03,07,0.00
2022,12,30,03,08,0.00
2022,12,30,03,09,0.00
2022,12,30,03,10,0.00
2022,12,30,03,11,0.00
2022,12,30,03,12,0.00
2022,12,30,03,13,0.00
2022,12,30,03,14,0.00
2022,12,30,03,15,0.00
2022,12,30,03,16,0.00
2022,12,30,03,17,0.00
2022,12,30,03,18,0.00
2022,12,30,03,19,0.00
2022,12,30,03,20,0.00
2022,12,30,03,21,0.00
2022,12,30,03,22,0.00
2022,12,30,03,23,0.00
2022,12,30,03,24,0.00
2022,12,30,03,25,0.00
2022,12,30,03,26,0.00
2022,12,30,03,27,0.00
2022,12,30,03,28,0.00
2022,12,30,03,29,0.00
2022,12,30,03,30,0.00
2022,12,30,03,31,0.00
2022,12,30,03,32,0.00
2022,12,30,03,33,0.00
2022,12,30,03,34,0.00
2022,12,30,03,35,0.00
2022,12,30,03,36,0.00
2022,12,30,03,37,0.00
2022,12,30,03,38,0.00
2022,12,30,03,39,0.00
2022,12,30,03,40,0.00
2022,12,30,03,41,0.00
2022,12,30,03,42,0.00
2022,12,30,03,43,0.00
2022,12,30,03,44,0.00
2022,12,30,03,45,0.00
2022,12,30,03,46,0.00
2022,12,30,03,47,0.00
2022,12,30,03,48,0.00
2022,12,30,03,49,0.00
2022,12,30,03,50,0.00
2022,12,30,03,51,0.00
2022,12,30,03,52,0.00
2022,12,30,03,53,0.00
2022,12,30,03,54,0.00
2022,12,30,03,55,0.00
2022,12,30,03,56,0.00
2022,12,30,03,57,0.00
2022,12,30,03,58,0.00
2022,12,30,03,59,0.00
2022,12,30,04,00,0.00
2022,12,30,04,01,0.00
2022,12,30,04,02,0.00
2022,12,30,04,03,0.00
2022,12,30,04,04,0.00
2022,12,30,04,05,0.00
2022,12,30,04,06,0.00
2022,12,30,04,07,0.00
2022,12,30,04,08,0.00
2022,12,30,04,09,0.00
2022,12,30,04,10,0.00
2022,12,30,04,11,0.00
2022,12,30,04,12,0.00
2022,12,30,04,13,0.00
2022,12,30,04,14,0.00
2022,12,30,04,15,0.00
2022,12,30,04,16,0.00
2022,12,30,04,17,0.00
2022,12,30,04,18,0.00
2022,12,30,04,19,0.00
2022,12,30,04,20,0.00
2022,12,30,04,21,0.00
2022,12,30,04,22,0.00
2022,12,30,04,23,0.00
2022,12,30,04,24,0.00
2022,12,30,04,25,0.00
2022,12,30,04,26,0.00
2022,12,30,04,27,0.00
2022,12,30,04,28,0.00
2022,12,30,04,29,0.00
2022,12,30,04,30,0.00
2022,12,30,04,31,0.00
2022,12,30,04,32,0.00
2022,12,30,04,33,0.00
2022,12,30,04,34,0.00
2022,12,30,04,35,0.00
2022,12,30,04,36,0.00
2022,12,30,04,37,0.00
2022,12,30,04,38,0.00
2022,12,30,04,39,0.00
2022,12,30,04,40,0.00
2022,12,30,04,41,0.00
2022,12,30,04,42,0.00
2022,12,30,04,43,0.00
2022,12,30,04,44,0.00
2022,12,30,04,45,0.00
2022,12,30,04,46,0.00
2022,12,30,04,47,0.00
2022,12,30,04,48,0.00
2022,12,30,04,49,0.00
2022,12,30,04,50,0.00
2022,12,30,04,51,0.00
2022,12,30,04,52,0.00
2022,12,30,04,53,0.00
2022,12,30,04,54,0.00
2022,12,30,04,55,0.00
2022,12,30,04,56,0.00
2022,12,30,04,57,0.00
2022,12,30,04,58,0.00
2022,12,30,04,59,0.00
2022,12,30,05,00,0.00
2022,12,30,05,01,0.00
2022,12,30,05,02,0.00
2022,12,30,05,03,0.00
2022,12,30,05,04,0.00
2022,12,30,05,05,0.00
2022,12,30,05,06,0.00
2022,12,30,05,07,0.00
2022,12,30,05,08,0.00
2022,12,30,05,09,0.00
2022,12,30,05,10,0.00
2022,12,30,05,11,0.00
2022,12,30,05,12,0.00
2022,12,30,05,13,0.00
2022,12,30,05,14,0.00
2022,12,30,05,15,0.00
2022,12,30,05,16,0.00
2022,12,30,05,17,0.00
2022,12,30,05,18,0.00
2022,12,30,05,19,0.00
2022,12,30,05,20,0.00
2022,12,30,05,21,0.00
2022,12,30,05,22,0.00
2022,12,30,05,23,0.00
2022,12,30,05,24,0.00
2022,12,30,05,25,0.00
2022,12,30,05,26,0.00
2022,12,30,05,27,0.00
2022,12,30,05,28,0.00
2022,12,30,05,29,0.00
2022,12,30,05,30,0.00
2022,12,30,05,31,0.00
2022,12,30,05,32,0.00
2022,12,30,05,33,0.00
2022,12,30,05,34,0.00
2022,12,30,05,35,0.00
2022,12,30,05,36,0.00
2022,12,30,05,37,0.00
2022,12,30,05,38,0.00
2022,12,30,05,39,0.00
2022,12,30,05,40,0.00
2022,12,30,05,41,0.00
2022,12,30,05,42,0.00
2022,12,30,05,43,0.00
2022,12,30,05,44,0.00
2022,12,30,05,45,0.00
2022,12,30,05,46,0.00
2022,12,30,05,47,0.00
2022,12,30,05,48,0.00
2022,12,30,05,49,0.00
2022,12,30,05,50,0.00
2022,12,30,05,51,0.00
2022,12,30,05,52,0.00
2022,12,30,05,53,0.00
2022,12,30,05,54,0.00
2022,12,30,05,55,0.00
2022,12,30,05,56,0.00
2022,12,30,05,57,0.00
2022,12,30,05,58,0.00
2022,12,30,05,59,0.00
2022,12,30,06,00,0.00
2022,12,30,06,01,0.00
2022,12,30,06,02,0.00
2022,12,30,06,03,0.00
2022,12,30,06,04,0.00
2022,12,30,06,05,0.00
2022,12,30,06,06,0.00
2022,12,30,06,07,0.00
2022,12,30,06,08,0.00
2022,12,30,06,09,0.00
2022,12,30,06,10,0.00
2022,12,30,06,11,0.00
2022,12,30,06,12,0.00
2022,12,30,06,13,0.00
2022,12,30,06,14,0.00
2022,12,30,06,15,0.00
2022,12,30,06,16,0.00
2022,12,30,06,17,0.00
2022,12,30,06,18,0.00
2022,12,30,06,19,0.00
2022,12,30,06,20,0.00
2022,12,30,06,21,0.00
2022,12,30,06,22,0.00
2022,12,30,06,23,0.00
2022,12,30,06,24,0.00
2022,12,30,06,25,0.00
2022,12,30,06,26,0.00
2022,12,30,06,27,0.00
2022,12,30,06,28,0.00
2022,12,30,06,29,0.00
2022,12,30,06,30,0.00
2022,12,30,06,31,0.00
2022,12,30,06,32,0.00
2022,12,30,06,33,0.00
2022,12,30,06,34,0.00
2022,12,30,06,35,0.00
2022,12,30,06,36,0.00
2022,12,30,06,37,0.00
2022,12,30,06,38,0.00
2022,12,30,06,39,0.00
2022,12,30,06,40,0.00
2022,12,30,06,41,0.00
2022,12,30,06,42,0.00
2022,12,30,06,43,0.00
2022,12,30,06,44,0.00
2022,12,30,06,45,0.00
2022,12,30,06,46,0.00
2022,12,30,06,47,0.00
2022,12,30,06,48,0.00
2022,12,30,06,49,0.00
2022,12,30,06,50,0.00
2022,12,30,06,51,0.00
2022,12,30,06,52,0.00
2022,12,30,06,53,0.00
2022,12,30,06,54,0.00
2022,12,30,06,55,0.00
2022,12,30,06,56,0.00
2022,12,30,06,57,0.00
2022,12,30,06,58,0.00
2022,12,30,06,59,0.00
2022,12,30,07,00,0.00
2022,12,30,07,01,0.00
2022,12,30,07,02,0.00
2022,12,30,07,03,0.00
2022,12,30,07,04,0.00
2022,12,30,07,05,0.00
2022,12,30,07,06,0.00
2022,12,30,07,07,0.00
2022,12,30,07,08,0.00
2022,12,30,07,09,0.00
2022,12,30,07,10,0.00
2022,12,30,07,11,0.00
2022,12,30,07,12,0.00
2022,12,30,07,13,0.00
2022,12,30,07,14,0.00
2022,12,30,07,15,0.00
2022,12,30,07,16,0.00
2022,12,30,07,17,0.00
2022,12,30,07,18,0.00
2022,12,30,07,19,0.00
2022,12,30,07,20,0.00
2022,12,30,07,21,0.00
2022,12,30,07,22,0.00
2022,12,30,07,23,0.00
2022,12,30,07,24,0.00
2022,12,30,07,25,0.00
2022,12,30,07,26,0.00
2022,12,30,07,27,0.00
2022,12,30,07,28,0.00
2022,12,30,07,29,0.00
2022,12,30,07,30,0.00
2022,12,30,07,31,0.00
2022,12,30,07,32,0.00
2022,12,30,07,33,0.00
2022,12,30,07,34,0.00
2022,12,30,07,35,0.00
2022,12,30,07,36,0.00
2022,12,30,07,37,0.00
2022,12,30,07,38,0.00
2022,12,30,07,39,0.00
2022,12,30,07,40,0.00
2022,12,30,07,41,0.00
2022,12,30,07,42,0.00
2022,12,30,07,43,0.00
2022,12,30,07,44,0.00
2022,12,30,07,45,0.00
2022,12,30,07,46,0.00
2022,12,30,07,47,0.00
2022,12,30,07,48,0.00
2022,12,30,07,49,0.00
2022,12,30,07,50,0.00
2022,12,30,07,51,0.00
2022,12,30,07,52,0.00
2022,12,30,07,53,0.00
2022,12,30,07,54,0.00
2022,12,30,07,55,0.00
2022,12,30,07,56,0.00
2022,12,30,07,57,0.00
2022,12,30,07,58,0.00
2022,12,30,07,59,0.00
2022,12,30,08,00,0.00
2022,12,30,08,01,0.00
2022,12,30,08,02,0.00
2022,12,30,08,03,0.00
2022,12,30,08,04,0.00
2022,12,30,08,05,0.00
2022,12,30,08,06,0.00
2022,12,30,08,07,0.00
2022,12,30,08,08,0.00
2022,12,30,08,09,0.00
2022,12,30,08,10,0.00
2022,12,30,08,11,0.00
2022,12,30,08,12,0.00
2022,12,30,08,13,0.00
2022,12,30,08,14,0.00
2022,12,30,08,15,0.00
2022,12,30,08,16,0.00
2022,12,30,08,17,0.00
2022,12,30,08,18,0.00
2022,12,30,08,19,0.00
2022,12,30,08,20,0.00
2022,12,30,08,21,0.00
2022,12,30,08,22,0.00
2022,12,30,08,23,0.00
2022,12,30,08,24,0.00
2022,12,30,08,25,4.10
2022,12,30,08,26,9.20
2022,12,30,08,27,12.90
2022,12,30,08,28,16.70
2022,12,30,08,29,18.50
2022,12,30,08,30,20.20
2022,12,30,08,31,22.40
2022,12,30,08,32,23.00
2022,12,30,08,33,25.00
2022,12,30,08,34,26.40
2022,12,30,08,35,28.60
2022,12,30,08,36,30.90
2022,12,30,08,37,33.80
2022,12,30,08,38,36.40
2022,12,30,08,39,41.10
2022,12,30,08,40,45.90
2022,12,30,08,41,47.40
2022,12,30,08,42,49.70
2022,12,30,08,43,51.90
2022,12,30,08,44,53.60
2022,12,30,08,45,55.40
2022,12,30,08,46,59.30
2022,12,30,08,47,61.90
2022,12,30,08,48,62.00
2022,12,30,08,49,62.00
2022,12,30,08,50,62.00
2022,12,30,08,51,62.00
2022,12,30,08,52,62.00
2022,12,30,08,53,62.80
2022,12,30,08,54,67.10
2022,12,30,08,55,70.00
2022,12,30,08,56,70.70
2022,12,30,08,57,72.00
2022,12,30,08,58,70.30
2022,12,30,08,59,64.90
2022,12,30,09,00,58.90
2022,12,30,09,01,54.10
2022,12,30,09,02,53.00
2022,12,30,09,03,53.00
2022,12,30,09,04,53.50
2022,12,30,09,05,55.20
2022,12,30,09,06,56.00
2022,12,30,09,07,57.70
2022,12,30,09,08,60.40
2022,12,30,09,09,68.40
2022,12,30,09,10,76.20
2022,12,30,09,11,81.00
2022,12,30,09,12,86.30
2022,12,30,09,13,90.70
2022,12,30,09,14,94.40
2022,12,30,09,15,98.40
2022,12,30,09,16,105.40
2022,12,30,09,17,103.90
2022,12,30,09,18,94.30
2022,12,30,09,19,86.50
2022,12,30,09,20,85.40
2022,12,30,09,21,90.10
2022,12,30,09,22,100.70
2022,12,30,09,23,117.70
2022,12,30,09,24,133.70
2022,12,30,09,25,136.10
2022,12,30,09,26,133.20
2022,12,30,09,27,133.40
2022,12,30,09,28,134.00
2022,12,30,09,29,128.20
2022,12,30,09,30,128.90
2022,12,30,09,31,132.00
2022,12,30,09,32,132.00
2022,12,30,09,33,130.80
2022,12,30,09,34,128.60
2022,12,30,09,35,143.50
2022,12,30,09,36,134.40
2022,12,30,09,37,135.10
2022,12,30,09,38,144.00
2022,12,30,09,39,144.70
2022,12,30,09,40,127.90
2022,12,30,09,41,122.10
2022,12,30,09,42,122.70
2022,12,30,09,43,128.80
2022,12,30,09,44,142.00
2022,12,30,09,45,142.00
2022,12,30,09,46,199.90
2022,12,30,09,47,267.30
2022,12,30,09,48,278.10
2022,12,30,09,49,288.40
2022,12,30,09,50,302.20
2022,12,30,09,51,308.00
2022,12,30,09,52,296.10
2022,12,30,09,53,286.70
2022,12,30,09,54,261.40
2022,12,30,09,55,276.30
2022,12,30,09,56,294.00
2022,12,30,09,57,285.30
2022,12,30,09,58,286.90
2022,12,30,09,59,294.00
2022,12,30,10,00,294.40
2022,12,30,10,01,296.20
2022,12,30,10,02,294.80
2022,12,30,10,03,288.00
2022,12,30,10,04,273.50
2022,12,30,10,05,257.50
2022,12,30,10,06,244.90
2022,12,30,10,07,237.60
2022,12,30,10,08,234.80
2022,12,30,10,09,204.30
2022,12,30,10,10,228.10
2022,12,30,10,11,236.30
2022,12,30,10,12,241.60
2022,12,30,10,13,244.00
2022,12,30,10,14,176.20
2022,12,30,10,15,99.20
2022,12,30,10,16,103.40
2022,12,30,10,17,112.40
2022,12,30,10,18,113.90
2022,12,30,10,19,111.80
2022,12,30,10,20,107.00
2022,12,30,10,21,107.00
2022,12,30,10,22,104.10
2022,12,30,10,23,95.50
2022,12,30,10,24,88.70
2022,12,30,10,25,84.10
2022,12,30,10,26,83.00
2022,12,30,10,27,83.30
2022,12,30,10,28,85.80
2022,12,30,10,29,89.80
2022,12,30,10,30,95.30
2022,12,30,10,31,103.90
2022,12,30,10,32,106.90
2022,12,30,10,33,132.40
2022,12,30,10,34,136.20
2022,12,30,10,35,136.10
2022,12,30,10,36,124.70
2022,12,30,10,37,118.90
2022,12,30,10,38,112.20
2022,12,30,10,39,107.60
2022,12,30,10,40,115.10
2022,12,30,10,41,126.10
2022,12,30,10,42,131.10
2022,12,30,10,43,124.70
2022,12,30,10,44,120.30
2022,12,30,10,45,122.50
2022,12,30,10,46,115.30
2022,12,30,10,47,105.60
2022,12,30,10,48,99.30
2022,12,30,10,49,99.00
2022,12,30,10,50,101.20
2022,12,30,10,51,103.40
2022,12,30,10,52,112.30
2022,12,30,10,53,132.10
2022,12,30,10,54,163.70
2022,12,30,10,55,196.10
2022,12,30,10,56,205.20
2022,12,30,10,57,214.30
2022,12,30,10,58,226.60
2022,12,30,10,59,243.20
2022,12,30,11,00,253.30
2022,12,30,11,01,258.40
2022,12,30,11,02,257.60
2022,12,30,11,03,234.20
2022,12,30,11,04,188.50
2022,12,30,11,05,160.30
2022,12,30,11,06,149.20
2022,12,30,11,07,146.60
2022,12,30,11,08,153.40
2022,12,30,11,09,156.70
2022,12,30,11,10,155.70
2022,12,30,11,11,139.90
2022,12,30,11,12,147.20
2022,12,30,11,13,236.60
2022,12,30,11,14,329.50
2022,12,30,11,15,342.30
2022,12,30,11,16,332.10
2022,12,30,11,17,285.00
2022,12,30,11,18,290.00
2022,12,30,11,19,182.80
2022,12,30,11,20,137.70
2022,12,30,11,21,133.70
2022,12,30,11,22,127.00
2022,12,30,11,23,119.90
2022,12,30,11,24,109.70
2022,12,30,11,25,107.30
2022,12,30,11,26,117.60
2022,12,30,11,27,134.20
2022,12,30,11,28,145.90
2022,12,30,11,29,146.70
2022,12,30,11,30,140.30
2022,12,30,11,31,137.00
2022,12,30,11,32,137.00
2022,12,30,11,33,145.30
2022,12,30,11,34,152.30
2022,12,30,11,35,150.80
2022,12,30,11,36,146.50
2022,12,30,11,37,138.90
2022,12,30,11,38,135.00
2022,12,30,11,39,128.00
2022,12,30,11,40,121.60
2022,12,30,11,41,122.70
2022,12,30,11,42,125.10
2022,12,30,11,43,127.00
2022,12,30,11,44,124.90
2022,12,30,11,45,120.60
2022,12,30,11,46,118.80
2022,12,30,11,47,115.10
2022,12,30,11,48,114.00
2022,12,30,11,49,113.80
2022,12,30,11,50,109.60
2022,12,30,11,51,101.90
2022,12,30,11,52,96.70
2022,12,30,11,53,95.00
2022,12,30,11,54,97.10
2022,12,30,11,55,103.80
2022,12,30,11,56,117.10
2022,12,30,11,57,131.40
2022,12,30,11,58,136.00
2022,12,30,11,59,134.00
2022,12,30,12,00,138.60
2022,12,30,12,01,151.70
2022,12,30,12,02,163.40
2022,12,30,12,03,165.40
2022,12,30,12,04,170.10
2022,12,30,12,05,177.10
2022,12,30,12,06,186.10
2022,12,30,12,07,190.00
2022,12,30,12,08,192.10
2022,12,30,12,09,186.40
2022,12,30,12,10,192.50
2022,12,30,12,11,205.70
2022,12,30,12,12,223.90
2022,12,30,12,13,228.00
2022,12,30,12,14,210.70
2022,12,30,12,15,245.40
2022,12,30,12,16,214.90
2022,12,30,12,17,212.00
2022,12,30,12,18,286.00
2022,12,30,12,19,318.50
2022,12,30,12,20,342.10
2022,12,30,12,21,364.00
2022,12,30,12,22,353.80
2022,12,30,12,23,373.70
2022,12,30,12,24,362.70
2022,12,30,12,25,230.00
2022,12,30,12,26,299.30
2022,12,30,12,27,433.30
2022,12,30,12,28,425.40
2022,12,30,12,29,405.70
2022,12,30,12,30,389.40
2022,12,30,12,31,381.10
2022,12,30,12,32,380.00
2022,12,30,12,33,382.60
2022,12,30,12,34,393.80
2022,12,30,12,35,411.00
2022,12,30,12,36,418.00
2022,12,30,12,37,243.90
2022,12,30,12,38,232.20
2022,12,30,12,39,439.70
2022,12,30,12,40,425.30
2022,12,30,12,41,421.00
2022,12,30,12,42,390.10
2022,12,30,12,43,382.60
2022,12,30,12,44,311.00
2022,12,30,12,45,346.60
2022,12,30,12,46,291.70
2022,12,30,12,47,286.90
2022,12,30,12,48,287.40
2022,12,30,12,49,279.80
2022,12,30,12,50,273.90
2022,12,30,12,51,240.40
2022,12,30,12,52,201.80
2022,12,30,12,53,180.10
2022,12,30,12,54,164.50
2022,12,30,12,55,150.40
2022,12,30,12,56,137.00
2022,12,30,12,57,123.30
2022,12,30,12,58,114.80
2022,12,30,12,59,108.90
2022,12,30,13,00,104.40
2022,12,30,13,01,101.30
2022,12,30,13,02,99.10
2022,12,30,13,03,98.00
2022,12,30,13,04,99.40
2022,12,30,13,05,103.30
2022,12,30,13,06,107.60
2022,12,30,13,07,114.90
2022,12,30,13,08,118.90
2022,12,30,13,09,122.80
2022,12,30,13,10,126.20
2022,12,30,13,11,127.00
2022,12,30,13,12,119.20
2022,12,30,13,13,109.00
2022,12,30,13,14,105.00
2022,12,30,13,15,104.00
2022,12,30,13,16,101.10
2022,12,30,13,17,102.30
2022,12,30,13,18,111.10
2022,12,30,13,19,142.10
2022,12,30,13,20,199.60
2022,12,30,13,21,217.70
2022,12,30,13,22,203.90
2022,12,30,13,23,194.80
2022,12,30,13,24,197.00
2022,12,30,13,25,201.80
2022,12,30,13,26,202.30
2022,12,30,13,27,185.10
2022,12,30,13,28,177.60
2022,12,30,13,29,171.50
2022,12,30,13,30,156.30
2022,12,30,13,31,142.50
2022,12,30,13,32,137.60
2022,12,30,13,33,140.30
2022,12,30,13,34,142.00
2022,12,30,13,35,157.90
2022,12,30,13,36,169.70
2022,12,30,13,37,171.00
2022,12,30,13,38,165.70
2022,12,30,13,39,167.10
2022,12,30,13,40,183.60
2022,12,30,13,41,223.40
2022,12,30,13,42,245.80
2022,12,30,13,43,239.70
2022,12,30,13,44,240.00
2022,12,30,13,45,237.20
2022,12,30,13,46,227.00
2022,12,30,13,47,209.80
2022,12,30,13,48,184.70
2022,12,30,13,49,184.00
2022,12,30,13,50,134.40
2022,12,30,13,51,114.00
2022,12,30,13,52,101.70
2022,12,30,13,53,97.30
2022,12,30,13,54,97.00
2022,12,30,13,55,96.80
2022,12,30,13,56,94.20
2022,12,30,13,57,90.70
2022,12,30,13,58,90.00
2022,12,30,13,59,87.70
2022,12,30,14,00,84.60
2022,12,30,14,01,84.00
2022,12,30,14,02,84.10
2022,12,30,14,03,86.80
2022,12,30,14,04,91.00
2022,12,30,14,05,95.30
2022,12,30,14,06,100.30
2022,12,30,14,07,102.00
2022,12,30,14,08,102.00
2022,12,30,14,09,104.00
2022,12,30,14,10,105.00
2022,12,30,14,11,104.70
2022,12,30,14,12,104.00
2022,12,30,14,13,104.00
2022,12,30,14,14,104.70
2022,12,30,14,15,111.90
2022,12,30,14,16,124.10
2022,12,30,14,17,138.10
2022,12,30,14,18,142.60
2022,12,30,14,19,143.10
2022,12,30,14,20,140.20
2022,12,30,14,21,134.00
2022,12,30,14,22,122.10
2022,12,30,14,23,108.70
2022,12,30,14,24,100.90
2022,12,30,14,25,96.30
2022,12,30,14,26,94.00
2022,12,30,14,27,94.20
2022,12,30,14,28,96.40
2022,12,30,14,29,97.00
2022,12,30,14,30,94.70
2022,12,30,14,31,90.40
2022,12,30,14,32,86.60
2022,12,30,14,33,84.00
2022,12,30,14,34,84.00
2022,12,30,14,35,84.00
2022,12,30,14,36,85.70
2022,12,30,14,37,86.00
2022,12,30,14,38,85.60
2022,12,30,14,39,83.00
2022,12,30,14,40,81.00
2022,12,30,14,41,82.10
2022,12,30,14,42,85.10
2022,12,30,14,43,87.70
2022,12,30,14,44,87.90
2022,12,30,14,45,85.40
2022,12,30,14,46,82.30
2022,12,30,14,47,79.10
2022,12,30,14,48,75.20
2022,12,30,14,49,71.10
2022,12,30,14,50,69.10
2022,12,30,14,51,67.10
2022,12,30,14,52,67.00
2022,12,30,14,53,67.70
2022,12,30,14,54,69.50
2022,12,30,14,55,71.20
2022,12,30,14,56,73.40
2022,12,30,14,57,76.50
2022,12,30,14,58,79.10
2022,12,30,14,59,81.00
2022,12,30,15,00,81.60
2022,12,30,15,01,83.00
2022,12,30,15,02,81.80
2022,12,30,15,03,79.60
2022,12,30,15,04,77.30
2022,12,30,15,05,73.90
2022,12,30,15,06,72.00
2022,12,30,15,07,72.00
2022,12,30,15,08,72.00
2022,12,30,15,09,70.90
2022,12,30,15,10,69.30
2022,12,30,15,11,67.30
2022,12,30,15,12,64.80
2022,12,30,15,13,61.10
2022,12,30,15,14,57.30
2022,12,30,15,15,54.70
2022,12,30,15,16,51.80
2022,12,30,15,17,49.60
2022,12,30,15,18,49.00
2022,12,30,15,19,49.00
2022,12,30,15,20,48.60
2022,12,30,15,21,47.00
2022,12,30,15,22,47.00
2022,12,30,15,23,47.00
2022,12,30,15,24,47.00
2022,12,30,15,25,47.00
2022,12,30,15,26,46.00
2022,12,30,15,27,45.60
2022,12,30,15,28,44.00
2022,12,30,15,29,43.10
2022,12,30,15,30,42.00
2022,12,30,15,31,40.60
2022,12,30,15,32,39.20
2022,12,30,15,33,39.10
2022,12,30,15,34,40.00
2022,12,30,15,35,40.60
2022,12,30,15,36,41.10
2022,12,30,15,37,41.20
2022,12,30,15,38,44.90
2022,12,30,15,39,48.50
2022,12,30,15,40,50.90
2022,12,30,15,41,51.40
2022,12,30,15,42,54.00
2022,12,30,15,43,57.90
2022,12,30,15,44,61.20
2022,12,30,15,45,62.00
2022,12,30,15,46,62.00
2022,12,30,15,47,59.80
2022,12,30,15,48,55.60
2022,12,30,15,49,53.70
2022,12,30,15,50,52.10
2022,12,30,15,51,49.80
2022,12,30,15,52,49.00
2022,12,30,15,53,49.00
2022,12,30,15,54,47.10
2022,12,30,15,55,47.00
2022,12,30,15,56,47.00
2022,12,30,15,57,47.00
2022,12,30,15,58,46.40
2022,12,30,15,59,44.60
2022,12,30,16,00,42.30
2022,12,30,16,01,38.90
2022,12,30,16,02,36.10
2022,12,30,16,03,32.70
2022,12,30,16,04,31.00
2022,12,30,16,05,30.00
2022,12,30,16,06,30.00
2022,12,30,16,07,30.00
2022,12,30,16,08,31.90
2022,12,30,16,09,32.00
2022,12,30,16,10,32.00
2022,12,30,16,11,32.00
2022,12,30,16,12,30.80
2022,12,30,16,13,27.10
2022,12,30,16,14,25.20
2022,12,30,16,15,22.90
2022,12,30,16,16,20.60
2022,12,30,16,17,19.00
2022,12,30,16,18,18.60
2022,12,30,16,19,18.00
2022,12,30,16,20,16.60
2022,12,30,16,21,14.30
2022,12,30,16,22,12.10
2022,12,30,16,23,12.00
2022,12,30,16,24,12.00
2022,12,30,16,25,12.90
2022,12,30,16,26,15.20
2022,12,30,16,27,16.00
2022,12,30,16,28,18.50
2022,12,30,16,29,19.10
2022,12,30,16,30,21.00
2022,12,30,16,31,21.00
2022,12,30,16,32,21.00
2022,12,30,16,33,19.90
2022,12,30,16,34,18.30
2022,12,30,16,35,16.40
2022,12,30,16,36,14.10
2022,12,30,16,37,13.60
2022,12,30,16,38,12.00
2022,12,30,16,39,12.00
2022,12,30,16,40,12.00
2022,12,30,16,41,11.30
2022,12,30,16,42,9.30
2022,12,30,16,43,7.10
2022,12,30,16,44,7.00
2022,12,30,16,45,6.30
2022,12,30,16,46,5.00
2022,12,30,16,47,5.00
2022,12,30,16,48,5.00
2022,12,30,16,49,5.00
2022,12,30,16,50,5.00
2022,12,30,16,51,3.90
2022,12,30,16,52,0.00
2022,12,30,16,53,0.00
2022,12,30,16,54,0.00
2022,12,30,16,55,0.00
2022,12,30,16,56,0.00
2022,12,30,16,57,0.00
2022,12,30,16,58,0.00
2022,12,30,16,59,0.00
2022,12,30,17,00,0.00
2022,12,30,17,01,0.00
2022,12,30,17,02,0.00
2022,12,30,17,03,0.00
2022,12,30,17,04,0.00
2022,12,30,17,05,0.00
2022,12,30,17,06,0.00
2022,12,30,17,07,0.00
2022,12,30,17,08,0.00
2022,12,30,17,09,0.00
2022,12,30,17,10,0.00
2022,12,30,17,11,0.00
2022,12,30,17,12,0.00
2022,12,30,17,13,0.00
2022,12,30,17,14,0.00
2022,12,30,17,15,0.00
2022,12,30,17,16,0.00
2022,12,30,17,17,0.00
2022,12,30,17,18,0.00
2022,12,30,17,19,0.00
2022,12,30,17,20,0.00
2022,12,30,17,21,0.00
2022,12,30,17,22,0.00
2022,12,30,17,23,0.00
2022,12,30,17,24,0.00
2022,12,30,17,25,0.00
2022,12,30,17,26,0.00
2022,12,30,17,27,0.00
2022,12,30,17,28,0.00
2022,12,30,17,29,0.00
2022,12,30,17,30,0.00
2022,12,30,17,31,0.00